STARLINK-2331 (47875 NORAD) Tracking and Keplerian Element Data

This shows tracking and keplerian element data for the satellite.

Feedback or suggestion? Click here.




ElementValue
Catalog47875
NameSTARLINK-2331
Epoch Orbit177
Epoch Day170.58334491
Epoch Year2021
RAAN95.5476
Inclination53.0476
Eccentricity0.0001345
Argument of Perigee76.5489
Mean Anonmoly109.3007
Mean Motion15.56610043
Decay Rate-0.01062709
L11 47875U 21021R 21170.58334491 -.01062709 00000-0 -16131-1 0 9995
L22 47875 53.0476 95.5476 0001345 76.5489 109.3007 15.56610043 1772

Live tracking and technical data element details for STARLINK-2331 (NORAD 47875). STARLINK-2331 can be tracked NOW for your location showing map with azimuth and elevation plus other details from your city location.

Track the satellite on the map from your city or location and see movement details for azimuth, elevation, latitude, longitude, range, height, and movement on the map or in text.







IsCatalogInMostPopularTable: catalog: 47875, numindb: 50
Update: records affected: 1



GetName: 47875 STARLINK-2331

Hit Count: updated at: Mon, 21 Jun 2021 03:00:14 GMT